Location: Crescent
(42.8242°N, 73.7329°W)
Time: 06:20:30
(UTC+00:00)

Explorer 7 - Pass Details

Date: 24 February 2026
Orbit: 430 x 541 km, 50.2° (Epoch: 9 March)

Event Time Altitude Azimuth Distance (km) Brightness Sun altitude
Rises 16:56:44 0° 222° (SW) 2,383 10.6 37.8°
Reaches altitude 10° 16:58:52 10° 216° (SW) 1,523 9.9 37.9°
Maximum altitude 17:02:09 45° 143° (SE) 601 8.4 37.9°
Drops below altitude 10° 17:05:30 10° 69° (ENE) 1,558 9.1 37.9°
Sets 17:07:43 0° 63° (ENE) 2,447 9.9 37.9°
